TimeGMT,TemperatureF,Dew PointF,Humidity,Sea Level PressureIn,VisibilityMPH,Wind Direction,Wind SpeedMPH,Gust SpeedMPH,PrecipitationIn,Events,Conditions,WindDirDegrees,DateUTC
12:20 AM,41.0,37.4,87,29.68,6.2,South,9.2,-,N/A,Rain,Light Rain,180,2012-11-19 00:20:00
12:50 AM,41.0,39.2,93,29.65,6.2,South,8.1,-,N/A,Rain,Light Rain,170,2012-11-19 00:50:00
1:20 AM,42.8,39.2,87,29.65,6.2,South,13.8,-,N/A,Rain,Light Rain,170,2012-11-19 01:20:00
1:50 AM,42.8,39.2,87,29.62,6.2,South,12.7,-,N/A,Rain,Light Rain,180,2012-11-19 01:50:00
2:20 AM,42.8,39.2,87,29.62,6.2,South,13.8,-,N/A,Rain,Rain,170,2012-11-19 02:20:00
2:50 AM,42,39,87,29.59,6,South,13.8,,,Rain,Rain,170,2012-11-19 02:50:00
2:50 AM,42.8,39.2,87,29.59,6.2,South,13.8,-,N/A,Rain,Light Rain,170,2012-11-19 02:50:00
3:20 AM,42.8,41.0,93,29.53,6.2,SSE,17.3,-,N/A,Rain,Light Rain,160,2012-11-19 03:20:00
3:50 AM,42.8,41.0,93,29.53,6.2,South,19.6,-,N/A,Rain,Light Rain,170,2012-11-19 03:50:00
4:20 AM,42.8,41.0,93,29.50,3.1,SSE,20.7,-,N/A,Rain,Heavy Rain,160,2012-11-19 04:20:00
4:50 AM,42.8,39.2,87,29.50,3.7,South,18.4,-,N/A,Rain,Rain,170,2012-11-19 04:50:00
5:20 AM,42.8,41.0,93,29.47,6.2,SSE,19.6,-,N/A,Rain,Rain,160,2012-11-19 05:20:00
5:50 AM,43,41,91,29.45,8,South,19.6,,,Rain,Rain,170,2012-11-19 05:50:00
5:50 AM,42.8,41.0,93,29.44,6.2,South,17.3,-,N/A,Rain,Rain,170,2012-11-19 05:50:00
6:20 AM,42.8,41.0,93,29.42,3.7,South,15.0,26.5,N/A,Rain,Rain,170,2012-11-19 06:20:00
6:50 AM,42.8,42.8,100,29.42,3.1,South,18.4,-,N/A,Rain,Rain,170,2012-11-19 06:50:00
7:20 AM,44.6,42.8,93,29.39,3.1,South,20.7,-,N/A,,Light Drizzle,170,2012-11-19 07:20:00
7:50 AM,44.6,42.8,93,29.36,5.6,South,19.6,-,N/A,Rain,Light Rain,170,2012-11-19 07:50:00
8:20 AM,46.4,44.6,93,29.33,3.1,South,19.6,-,N/A,,Drizzle,180,2012-11-19 08:20:00
8:50 AM,46,44,91,29.36,5,South,24.2,,,Rain,Light Drizzle,190,2012-11-19 08:50:00
8:50 AM,46.4,44.6,93,29.33,3.1,South,17.3,-,N/A,,Light Drizzle,180,2012-11-19 08:50:00
9:20 AM,46.4,44.6,93,29.36,5.0,South,13.8,26.5,N/A,,Light Drizzle,180,2012-11-19 09:20:00
9:50 AM,46.4,44.6,93,29.33,3.7,South,17.3,-,N/A,,Light Drizzle,180,2012-11-19 09:50:00
10:20 AM,46.4,44.6,93,29.33,4.3,South,17.3,-,N/A,,Light Drizzle,180,2012-11-19 10:20:00
10:50 AM,46.4,44.6,93,29.33,3.7,South,15.0,-,N/A,,Drizzle,180,2012-11-19 10:50:00
11:20 AM,46.4,44.6,93,29.33,5.0,South,17.3,-,N/A,,Light Drizzle,190,2012-11-19 11:20:00
11:50 AM,48,46,89,29.30,6,South,24.2,,,,Mostly Cloudy,190,2012-11-19 11:50:00
11:50 AM,48.2,44.6,87,29.30,4.3,South,19.6,-,N/A,,Light Drizzle,180,2012-11-19 11:50:00
12:20 PM,48.2,44.6,87,29.30,5.0,SSW,18.4,-,N/A,,Mostly Cloudy,200,2012-11-19 12:20:00
12:50 PM,48.2,44.6,87,29.27,6.2,South,21.9,-,N/A,,Scattered Clouds,190,2012-11-19 12:50:00
1:20 PM,48.2,44.6,87,29.30,6.2,South,15.0,-,N/A,,Mostly Cloudy,190,2012-11-19 13:20:00
1:50 PM,48.2,46.4,93,29.30,6.2,South,11.5,-,N/A,,Mostly Cloudy,190,2012-11-19 13:50:00
2:20 PM,48.2,46.4,93,29.27,6.2,South,12.7,-,N/A,,Mostly Cloudy,190,2012-11-19 14:20:00
2:50 PM,49,46,87,29.28,11,SSW,18.4,,,,Overcast,200,2012-11-19 14:50:00
2:50 PM,50.0,46.4,87,29.27,6.2,South,16.1,-,N/A,,Mostly Cloudy,190,2012-11-19 14:50:00
3:20 PM,50.0,46.4,87,29.27,6.2,South,16.1,-,N/A,,Mostly Cloudy,180,2012-11-19 15:20:00
3:50 PM,50.0,46.4,87,29.27,6.2,South,13.8,26.5,N/A,,Mostly Cloudy,190,2012-11-19 15:50:00
4:20 PM,50.0,46.4,87,29.27,6.2,South,18.4,-,N/A,,Mostly Cloudy,180,2012-11-19 16:20:00
4:50 PM,50.0,46.4,87,29.30,6.2,South,11.5,-,N/A,,Light Drizzle,180,2012-11-19 16:50:00
5:20 PM,50.0,48.2,94,29.27,6.2,South,19.6,-,N/A,,Mostly Cloudy,180,2012-11-19 17:20:00
5:50 PM,49,47,91,29.30,14,South,18.4,,,,Scattered Clouds,190,2012-11-19 17:50:00
5:50 PM,50.0,46.4,87,29.27,6.2,South,17.3,-,N/A,,Mostly Cloudy,180,2012-11-19 17:50:00
6:20 PM,50.0,46.4,87,29.30,6.2,South,6.9,-,N/A,,Partly Cloudy,180,2012-11-19 18:20:00
6:50 PM,50.0,46.4,87,29.30,6.2,South,13.8,-,N/A,,Scattered Clouds,180,2012-11-19 18:50:00
7:20 PM,50.0,48.2,94,29.30,6.2,South,17.3,-,N/A,,Scattered Clouds,180,2012-11-19 19:20:00
7:50 PM,50.0,48.2,94,29.33,6.2,South,13.8,-,N/A,,Mostly Cloudy,190,2012-11-19 19:50:00
8:20 PM,50.0,48.2,94,29.33,6.2,South,13.8,-,N/A,,Scattered Clouds,180,2012-11-19 20:20:00
8:50 PM,51,49,89,29.33,19,South,16.1,,,,Scattered Clouds,190,2012-11-19 20:50:00
8:50 PM,50.0,48.2,94,29.33,6.2,South,13.8,-,N/A,,Scattered Clouds,190,2012-11-19 20:50:00
9:20 PM,51.8,48.2,88,29.33,6.2,SSW,11.5,-,N/A,,Mostly Cloudy,210,2012-11-19 21:20:00
9:50 PM,51.8,48.2,88,29.33,6.2,SSW,12.7,-,N/A,,Mostly Cloudy,210,2012-11-19 21:50:00
10:20 PM,51.8,46.4,82,29.36,6.2,SSW,12.7,-,N/A,,Scattered Clouds,210,2012-11-19 22:20:00
10:50 PM,51.8,46.4,82,29.36,6.2,SSW,17.3,28.8,N/A,,Unknown,210,2012-11-19 22:50:00
11:20 PM,50.0,46.4,87,29.39,6.2,SSW,12.7,-,N/A,,Partly Cloudy,200,2012-11-19 23:20:00
11:50 PM,50,45,75,29.39,25,SSW,13.8,,,,,210,2012-11-19 23:50:00
11:50 PM,50.0,44.6,82,29.39,6.2,SW,4.6,-,N/A,,Unknown,230,2012-11-19 23:50:00